Home   Weather   Haldimand   Past weeks

Flag for Canada Past Weather in Haldimand, Ontario, Canada — Yesterday and Last 2 Weeks

Now
34 °F

Fog.


Feels Like: 31 °F
Forecast: 36 / 58 °F
Wind: 3 mph from Southwest

Location: Hamilton Airport

Current Time: Apr 23, 2017 at 6:11:54 am

Latest Report: Apr 23, 2017 at 5:40 am


Visibility: 6 mi

Pressure: 30.11 "Hg

Humidity: 100%

Dew Point: 34 °F

Location of HaldimandLocation

Past Weather in Haldimand — Graph

°F

Haldimand Temperature Yesterday

Maximum temperature yesterday: 57 °F (at 4:00 pm)
Minimum temperature yesterday: 39 °F (at 12:00 am)
Average temperature yesterday: 46 °F

High & Low Weather Summary for the Past Weeks

 TemperatureHumidityPressure
High72 °F (Apr 10, 1:00 pm)100% (Apr 20, 11:00 am)30.54 "Hg (Apr 20, 11:00 am)
Low30 °F (Apr 8, 5:00 am)30% (Apr 8, 2:00 pm)29.75 "Hg (Apr 16, 11:00 am)
Average49 °F72%30.08 "Hg
* Reported Apr 8 5:00 am — Apr 23 5:00 am, Haldimand, Weather by CustomWeather, © 2017

Note: Actual official high and low records may vary slightly from our data, if they occured in-between our weather recording intervals... More about our weather records

Advertising

Haldimand Weather History for the Previous 24 Hours

Scroll right to see more
 ConditionsComfort  
Time TempWeatherWind HumidityBarometerVisibility
5:00 am
Sun, Apr 23
36 °FFog.3 mph93%30.10 "Hg15 mi
4:00 am37 °FFog.2 mph93%30.10 "Hg15 mi
3:00 am37 °FPassing clouds.2 mph100%30.11 "Hg15 mi
2:00 am37 °FPassing clouds.3 mph93%30.13 "Hg15 mi
1:00 am39 °FPassing clouds.3 mph87%30.14 "Hg15 mi
12:00 am39 °FClear.3 mph93%30.13 "Hg15 mi
11:00 pm
Sat, Apr 22
43 °FPassing clouds.3 mph81%30.13 "Hg15 mi
10:00 pm43 °FPassing clouds.3 mph81%30.12 "Hg15 mi
9:00 pm43 °FPassing clouds.6 mph81%30.11 "Hg15 mi
8:00 pm48 °FPartly sunny.10 mph76%30.10 "Hg15 mi
7:00 pm52 °FPartly sunny.7 mph67%30.08 "Hg15 mi
6:00 pm54 °FPartly sunny.10 mph63%30.08 "Hg15 mi
5:00 pm57 °FScattered clouds.8 mph41%30.08 "Hg15 mi
4:00 pm57 °FScattered clouds.8 mph39%30.09 "Hg15 mi
2:00 pm54 °FPartly sunny.7 mph44%30.09 "Hg15 mi
1:00 pm52 °FPartly sunny.8 mph54%30.09 "Hg15 mi
12:00 pm50 °FPartly sunny.13 mph58%30.09 "Hg15 mi
11:00 am46 °FBroken clouds.10 mph62%30.11 "Hg15 mi
10:00 am43 °FPartly sunny.6 mph71%30.10 "Hg15 mi
9:19 am43 °FPartly sunny.12 mph71%30.09 "Hg15 mi
9:00 am43 °FPartly sunny.10 mph71%30.09 "Hg15 mi
8:00 am43 °FPartly sunny.9 mph76%30.08 "Hg15 mi
7:00 am41 °FPartly sunny.5 mph81%30.05 "Hg15 mi
6:00 am39 °FPassing clouds.5 mph87%30.05 "Hg15 mi
Weather by CustomWeather, © 2017

See weather overviewHow to use our weather pages